User: anonymous   Login
Location: Sun City Center
(27.6996°N, 82.3528°W)
Time: 10:17:35
(UTC-04:00)
Language:

Cosmos 2084 Rocket - Orbit

View from above orbital plane
View from above orbital plane
View from above satellite
View from above satellite

Ground track
Ground track

The orbit data is extracted from the following two-line orbital elements,

1 20666U 90055D   14303.93542044  .00001816  00000-0  19750-3 0  3323
2 20666 062.7868 110.8873 0071248 006.0514 354.1422 14.90005574317978
Epoch (UTC): 30 October 2014 22:27:00
Eccentricity: 0.0071248
inclination: 62.7868°
perigee height: 548 km
apogee height: 647 km
right ascension of ascending node: 110.8873°
argument of perigee: 6.0514°
revolutions per day: 14.90005574
mean anomaly at epoch: 354.1422°
orbit number at epoch: 31797

The dashed part of the orbit path shows where the satellite is in the earth's shadow,  

DLR